Driggs, ID

4:42 PM MDT on March 27, 2017 (GMT -0600)
Driggs

Weather History for KDIJ - July, 2013

Change the Weather History Date:

Monday, July 29, 2013

  Actual Average (KJAC) Record (KJAC)
Temperature  
Mean Temperature 61 °F -  
Max Temperature 77 °F 81 °F 87 °F (1960)
Min Temperature 45 °F 43 °F 31 °F (1959)
Degree Days  
Heating Degree Days 4    
Growing Degree Days 11 (Base 50)    
Moisture  
Dew Point 47 °F    
Average Humidity 68    
Maximum Humidity 89    
Minimum Humidity 28    
Precipitation  
Precipitation 0.42 in - - ()
Sea Level Pressure  
Sea Level Pressure 30.00 in    
Wind  
Wind Speed 7 mph (SE)    
Max Wind Speed 21 mph    
Max Gust Speed 31 mph    
Visibility 8 miles    
Events Rain , Thunderstorm    
Averages and records for this station are not official NWS values.
T = Trace of Precipitation, MM = Missing Value Source: NWS Daily Summary

Daily Weather History Graph

Daily Weather History Graph

Search for Another Location

Airport or City:

Trip Planner

Search our weather history database for the weather conditions in past years. The results will help you decide how hot, cold, wet, or windy it might be!

Date:

Astronomy

Jul. 29, 2013 Rise Set
Actual Time 6:10 AM MDT 8:50 PM MDT
Civil Twilight 5:37 AM MDT 9:23 PM MDT
Nautical Twilight 4:55 AM MDT 10:05 PM MDT
Astronomical Twilight 4:07 AM MDT 10:52 PM MDT
Moon No Moon Rise 2:13 PM MDT (7/29)
Length of Visible Light 15h 46m
Length of Day
14h 40m
Waning Gibbous, 50% of the Moon is Illuminated
Jul 29
Waning Gibbous
Aug 6
New
Aug 14
First Quarter
Aug 20
Full
Aug 28
Last Quarter

Hourly Weather History & Observations

Time (MDT) Temp. Windchill Dew Point Humidity Pressure Visibility Wind Dir Wind Speed Gust Speed Precip Events Conditions
12:56 AM 47.8 °F - 41.0 °F 77% 29.84 in 10.0 mi Calm Calm - N/A   Clear
1:56 AM 48.9 °F - 41.0 °F 74% 29.83 in 10.0 mi East 9.2 mph - N/A   Clear
2:56 AM 45.9 °F 43.6 °F 38.8 °F 76% 29.84 in 10.0 mi ENE 4.6 mph - N/A   Clear
3:56 AM 45.0 °F 41.2 °F 39.9 °F 82% 29.84 in 10.0 mi ESE 6.9 mph - N/A   Clear
4:56 AM 46.9 °F - 39.9 °F 77% 29.91 in 10.0 mi SE 5.8 mph - N/A   Mostly Cloudy
5:56 AM 50.0 °F - 41.9 °F 74% 29.90 in 10.0 mi SE 4.6 mph - N/A   Partly Cloudy
6:56 AM 55.9 °F - 43.0 °F 62% 29.89 in 10.0 mi Calm Calm - N/A   Mostly Cloudy
7:56 AM 59.0 °F - 45.9 °F 62% 29.91 in 10.0 mi ESE 8.1 mph - N/A   Clear
8:56 AM 63.9 °F - 43.9 °F 48% 29.92 in 10.0 mi SSE 9.2 mph - N/A   Scattered Clouds
9:56 AM 68.9 °F - 43.9 °F 40% 29.92 in 10.0 mi South 5.8 mph - N/A   Mostly Cloudy
10:56 AM 68.9 °F - 43.9 °F 40% 29.95 in 10.0 mi West 5.8 mph - N/A   Overcast
12:56 PM 73.9 °F - 43.0 °F 33% 29.93 in 10.0 mi Variable 3.5 mph - N/A   Scattered Clouds
1:56 PM 77.0 °F - 41.9 °F 28% 29.90 in 10.0 mi NW 6.9 mph - N/A   Scattered Clouds
2:56 PM 77.9 °F - 43.0 °F 29% 29.88 in 10.0 mi Variable 6.9 mph - N/A   Partly Cloudy
3:56 PM 70.9 °F - 45.9 °F 41% 29.93 in 10.0 mi South 11.5 mph - N/A Thunderstorm Mostly Cloudy
4:25 PM 62.6 °F - 51.8 °F 68% 30.14 in 6.0 mi SE 13.8 mph - 0.01 in Rain , Thunderstorm Light Thunderstorms and Rain
4:34 PM 60.8 °F - 53.6 °F 77% 30.14 in 2.5 mi SE 12.7 mph - 0.05 in Rain , Thunderstorm Light Thunderstorms and Rain
4:41 PM 60.8 °F - 53.6 °F 77% 30.14 in 10.0 mi SSE 12.7 mph - 0.05 in Rain , Thunderstorm Light Thunderstorms and Rain
4:56 PM 63.0 °F - 54.0 °F 72% 29.94 in 10.0 mi SSE 10.4 mph - 0.06 in Rain Light Rain
5:21 PM 66.2 °F - 51.8 °F 60% 30.12 in 10.0 mi SSE 9.2 mph - 0.00 in Thunderstorm Partly Cloudy
5:48 PM 59.0 °F - 48.2 °F 67% 30.20 in 2.0 mi NW 17.3 mph 31.1 mph 0.06 in Rain , Thunderstorm Thunderstorms and Rain
5:56 PM 54.9 °F - 48.9 °F 80% 30.00 in 0.5 mi ENE 10.4 mph - 0.23 in Rain , Thunderstorm Heavy Thunderstorms and Rain
6:01 PM 53.6 °F - 48.2 °F 82% 30.16 in 1.0 mi East 15.0 mph - 0.03 in Rain , Thunderstorm Thunderstorms and Rain
6:04 PM 53.6 °F - 48.2 °F 82% 30.16 in 1.5 mi East 15.0 mph - 0.03 in Rain , Thunderstorm Light Thunderstorms and Rain
6:07 PM 53.6 °F - 48.2 °F 82% 30.16 in 3.0 mi ENE 13.8 mph - 0.03 in Rain , Thunderstorm Light Thunderstorms and Rain
6:17 PM 55.4 °F - 48.2 °F 77% 30.17 in 7.0 mi ENE 17.3 mph - 0.04 in Rain , Thunderstorm Light Thunderstorms and Rain
6:24 PM 55.4 °F - 48.2 °F 77% 30.16 in 1.5 mi East 20.7 mph 24.2 mph 0.12 in Rain , Thunderstorm Heavy Thunderstorms and Rain
6:30 PM 55.4 °F - 48.2 °F 77% 30.18 in 1.5 mi SE 11.5 mph 24.2 mph 0.12 in Rain , Thunderstorm Light Thunderstorms and Rain
6:34 PM 55.4 °F - 50.0 °F 82% 30.18 in 3.0 mi SE 10.4 mph - 0.13 in Rain , Thunderstorm Light Thunderstorms and Rain
6:56 PM 56.8 °F - 50.9 °F 80% 29.95 in 10.0 mi ESE 5.8 mph - 0.13 in Thunderstorm Scattered Clouds
7:15 PM 57.2 °F - 51.8 °F 82% 30.16 in 10.0 mi SSE 9.2 mph - 0.00 in   Partly Cloudy
7:56 PM 56.8 °F - 50.9 °F 80% 29.95 in 10.0 mi South 4.6 mph - 0.00 in   Clear
8:56 PM 55.9 °F - 52.9 °F 89% 29.93 in 10.0 mi Calm Calm - N/A   Clear
9:56 PM 59.0 °F - 47.8 °F 66% 29.91 in 10.0 mi SSE 13.8 mph - N/A   Clear
10:56 PM 59.9 °F - 45.9 °F 60% 29.92 in 10.0 mi Variable 3.5 mph - N/A   Clear
11:56 PM 55.9 °F - 46.9 °F 72% 29.96 in 10.0 mi Calm Calm - N/A   Partly Cloudy